CW2718 Weather Reports


time (UTC)temp
C
wind
direction
speed
KPH
gust
KPH
rain 1hr
cm
rain 24hr
cm
rain mn
cm
humidity
%
barometer
mb
20260508014118 12 259 0.0 0.0 0.00 0.91 0.89 54 1007.2
20260508012118 12 259 0.0 0.0 0.00 0.91 0.89 53 1007.1
20260508011118 13 259 0.0 0.0 0.00 0.91 0.89 51 1007.0
20260508010119 13 259 0.0 0.0 0.00 0.91 0.89 49 1007.0
20260508005119 14 259 0.0 0.0 0.00 0.91 0.89 47 1007.0
20260508004118 14 259 0.0 0.0 0.00 0.91 0.89 43 1006.9
20260508003118 15 259 0.0 0.0 0.00 0.91 0.89 44 1006.8
20260508002119 15 259 0.0 0.0 0.00 0.91 0.89 42 1006.7
20260508001118 15 259 0.0 0.0 0.00 0.91 0.89 40 1006.6
20260508000118 16 259 0.0 0.0 0.00 0.91 0.89 39 1006.6
20260507234119 16 259 0.0 0.0 0.00 0.91 0.89 37 1006.3
20260507232118 17 263 0.0 0.0 0.00 0.91 0.89 36 1006.3
20260507231118 17 267 0.0 0.0 0.00 0.91 0.89 37 1006.3
20260507225118 18 247 0.0 0.0 0.00 0.91 0.89 35 1006.1
20260507224118 18 244 0.0 6.4 0.00 0.91 0.89 34 1006.1
20260507223118 18 261 0.0 8.0 0.00 0.91 0.89 36 1006.1
20260507222118 18 286 0.0 14.5 0.00 0.91 0.89 33 1006.0
20260507221118 18 234 0.0 19.3 0.00 0.91 0.89 34 1006.1
20260507220118 18 311 0.0 14.5 0.00 0.91 0.89 34 1006.1
20260507215118 18 265 0.0 6.4 0.00 0.91 0.89 36 1006.1
20260507214118 18 267 0.0 12.9 0.00 0.91 0.89 33 1006.1
20260507213118 18 270 0.0 6.4 0.00 0.91 0.89 34 1006.2
20260507212118 18 284 0.0 17.7 0.00 0.91 0.89 32 1006.2
20260507211118 18 283 0.0 12.9 0.00 0.91 0.89 34 1006.0
20260507205118 18 296 3.2 11.3 0.00 0.91 0.89 34 1005.9
20260507204118 18 337 0.0 4.8 0.00 0.91 0.89 34 1005.9
20260507203118 18 334 0.0 3.2 0.00 0.91 0.89 35 1006.0
20260507202118 18 274 0.0 6.4 0.00 0.91 0.89 31 1006.0
20260507200118 18 275 0.0 4.8 0.00 0.91 0.89 32 1006.1
20260507194118 18 252 0.0 12.9 0.00 0.91 0.89 32 1006.5
20260507193118 18 281 0.0 14.5 0.00 0.91 0.89 34 1006.6
20260507192118 18 280 0.0 14.5 0.00 0.91 0.89 33 1006.6
20260507191118 18 269 0.0 11.3 0.00 0.91 0.89 33 1006.8
20260507190118 18 281 0.0 6.4 0.00 0.91 0.89 38 1007.0
20260507185118 18 10 0.0 3.2 0.00 0.91 0.89 38 1007.0
20260507184117 18 96 0.0 0.0 0.00 0.91 0.89 35 1007.0
20260507183118 18 265 0.0 14.5 0.00 0.91 0.89 36 1007.2
20260507182118 17 304 0.0 6.4 0.00 0.91 0.89 37 1007.4
20260507180117 17 277 0.0 0.0 0.00 0.91 0.89 37 1007.5
20260507175118 18 266 0.0 14.5 0.00 0.91 0.89 39 1007.6
20260507173117 17 13 0.0 1.6 0.00 0.91 0.89 36 1008.0
20260507172117 17 273 0.0 4.8 0.00 0.91 0.89 38 1008.3
20260507171117 17 287 0.0 0.0 0.00 0.91 0.89 38 1008.4
20260507165117 17 324 0.0 1.6 0.00 0.91 0.89 42 1008.8
20260507164117 17 328 0.0 6.4 0.00 0.91 0.89 38 1008.9
20260507163117 17 253 0.0 4.8 0.00 0.94 0.89 40 1009.1
20260507162117 16 17 0.0 3.2 0.00 0.94 0.89 39 1009.1
20260507161117 16 150 0.0 1.6 0.00 0.97 0.89 43 1009.3
20260507160116 16 360 0.0 3.2 0.00 0.99 0.89 42 1009.2
20260507155117 16 251 0.0 0.0 0.00 1.04 0.89 45 1009.5
20260507153117 15 250 0.0 3.2 0.00 1.27 0.89 45 1009.5
20260507152117 16 331 0.0 0.0 0.00 1.35 0.89 46 1009.8
20260507151117 15 300 0.0 1.6 0.00 1.37 0.89 49 1009.8
20260507150118 15 307 0.0 1.6 0.00 1.42 0.89 51 1010.0
20260507145117 13 313 0.0 6.4 0.00 1.42 0.89 53 1010.2
20260507144117 13 281 0.0 6.4 0.00 1.47 0.89 55 1010.2
20260507143117 13 287 0.0 4.8 0.00 1.50 0.89 52 1010.3
20260507141118 13 246 0.0 1.6 0.00 1.52 0.89 58 1010.4
20260507140116 12 295 0.0 3.2 0.00 1.52 0.89 62 1010.4
20260507135117 12 281 1.6 11.3 0.00 1.52 0.89 60 1010.5
20260507134117 12 290 0.0 4.8 0.00 1.52 0.89 61 1010.5
20260507133117 12 306 0.0 4.8 0.00 1.52 0.89 66 1010.5
20260507132117 12 274 0.0 9.7 0.00 1.52 0.89 68 1010.6
20260507131117 11 215 9.7 9.7 0.00 1.52 0.89 72 1010.5
20260507130117 11 281 0.0 4.8 0.00 1.52 0.89 77 1010.4
20260507123117 10 257 0.0 0.0 0.00 1.52 0.89 92 1010.6
20260507122117 9 257 0.0 0.0 0.00 1.52 0.89 93 1010.4
20260507121116 9 257 0.0 0.0 0.00 1.52 0.89 93 1010.3
20260507120117 9 257 0.0 0.0 0.00 1.52 0.89 93 1010.5
20260507115117 9 248 0.0 0.0 0.00 1.52 0.89 93 1010.5
20260507113318 9 248 0.0 1.6 0.00 1.52 0.89 93 1008.7